Weather in Dokuchaieve

Ukraine / Kirovohrad Region     47°49′47″N   32°37′53″E
temp.,
°C
wind,
m/s
gust,
m/s
humid.,
%
clouds,
%
prec.,
mm/h
press.,
hPa
HPBL,
m
23 april, fri
fri2300:00+8s410855 0.0 1020240
03:00+8s512865 0.0 1019273
06:00+9s6138198 0.0 1018358
09:00+11s71370100 0.0 1018580
12:00+16ssw91158100 0.3 10171119
15:00+14sw81070100 2.7 10161236
18:00+10nnw6788100 5.4 1017494
21:00+7n5988100 7.4 1019554
24 april, sat
sat2400:00+5nw34901 0.2 1019114
03:00+4w37944 0.2 1019169
06:00+3wnw37920 0.0 1020161
09:00+8wnw46580 0.0 1020686
12:00+12w7941100 0.0 10202594
15:00+12wnw91241100 0.0 10202647
18:00+10nw7104468 0.0 10212083
21:00+6nnw34550 0.0 102363
25 april, sun
sun2500:00+4nw22620 0.0 102419
03:00+3w22655 0.0 102314
06:00+3wsw22676 0.0 102314
09:00+8ssw34505 0.0 1022562
12:00+12sw44405 0.0 10211651
15:00+13wsw5544100 0.0 10191908
18:00+13wsw45467 0.0 10181540
21:00+9sw3764100 0.0 1019174
26 april, mon
mon2600:00+8w2486100 0.1 1019219
03:00+7sw3691100 4.1 1018619
06:00+5n578791 3.4 1019466
09:00+8nnw45628 3.4 1020866
12:00+11nw44415 0.0 10191575
15:00+12wnw45364 0.0 10182207
18:00+12w343633 0.0 10172172
21:00+8sw224995 0.0 101814
27 april, tue
tue2700:00+7s3351100 0.0 101727
03:00+6s3569100 0.0 101696
06:00+6s2774100 0.2 1015276
09:00+7ssw71491100 3.0 10141138
12:00+10wsw7108277 1.9 1014926
15:00+14wnw595115 2.1 10131878
18:00+13nnw5653100 0.0 1014904
21:00+8ne377099 0.0 1016149